Time,TemperatureF,DewpointF,PressureIn,WindDirection,WindDirectionDegrees,WindSpeedMPH,WindSpeedGustMPH,Humidity,HourlyPrecipIn,Conditions,Clouds,dailyrainin,SoftwareType,DateUTC
2013-05-11 00:01:00,61.9,57.6,29.88,West,267,3.6,3.6,86,0.00,OVC,,0.00,WeatherDisplay:10.37,2013-05-11 04:01:00,
2013-05-11 00:06:00,61.9,57.3,29.89,SW,222,7.2,8.1,85,0.00,OVC,,0.00,WeatherDisplay:10.37,2013-05-11 04:06:00,
2013-05-11 00:11:00,61.9,57.3,29.89,SW,222,6.9,6.9,85,0.00,-RA,,0.00,WeatherDisplay:10.37,2013-05-11 04:11:00,
2013-05-11 00:16:00,61.9,57.3,29.89,SW,222,6.9,6.9,85,0.00,-RA,,0.00,WeatherDisplay:10.37,2013-05-11 04:16:00,
2013-05-11 00:21:00,61.9,57.6,29.88,SW,222,6.9,6.9,86,0.00,-RA,,0.00,WeatherDisplay:10.37,2013-05-11 04:21:00,
2013-05-11 00:26:00,61.7,57.5,29.87,SE,132,2.2,2.3,86,0.00,-RA,,0.00,WeatherDisplay:10.37,2013-05-11 04:26:00,
2013-05-11 00:31:00,61.7,57.1,29.86,SW,222,0.0,0.0,85,0.00,-RA,,0.00,WeatherDisplay:10.37,2013-05-11 04:31:00,
2013-05-11 00:36:00,61.7,57.1,29.87,West,267,3.1,3.5,85,0.00,-RA,,0.00,WeatherDisplay:10.37,2013-05-11 04:36:00,
2013-05-11 00:41:00,61.5,57.0,29.87,SE,132,4.7,4.7,85,0.00,-RA,,0.00,WeatherDisplay:10.37,2013-05-11 04:41:00,
2013-05-11 00:46:00,61.5,57.0,29.88,SW,222,2.8,4.6,85,0.00,-RA,,0.00,WeatherDisplay:10.37,2013-05-11 04:46:00,
2013-05-11 00:51:00,61.5,57.0,29.87,SSW,199,3.0,4.6,85,0.00,-RA,,0.00,WeatherDisplay:10.37,2013-05-11 04:51:00,
2013-05-11 00:56:00,61.5,57.0,29.88,SSW,199,0.0,0.0,85,0.00,-RA,,0.00,WeatherDisplay:10.37,2013-05-11 04:56:00,
2013-05-11 01:01:00,61.5,57.0,29.86,SSE,155,4.5,4.6,85,0.00,-RA,,0.00,WeatherDisplay:10.37,2013-05-11 05:01:00,
2013-05-11 01:06:00,61.5,57.0,29.88,WSW,245,4.6,10.4,85,0.00,-RA,,0.00,WeatherDisplay:10.37,2013-05-11 05:06:00,
2013-05-11 01:11:00,61.5,57.3,29.89,SW,222,3.6,3.6,86,0.00,-RA,,0.00,WeatherDisplay:10.37,2013-05-11 05:11:00,
2013-05-11 01:16:00,61.5,57.0,29.90,SSW,199,4.3,4.6,85,0.00,-RA,,0.00,WeatherDisplay:10.37,2013-05-11 05:16:00,
2013-05-11 01:21:00,61.5,57.3,29.90,SW,222,1.7,3.5,86,0.00,-RA,,0.00,WeatherDisplay:10.37,2013-05-11 05:21:00,
2013-05-11 01:26:00,61.5,57.0,29.90,SSW,199,2.0,2.3,85,0.00,-RA,,0.00,WeatherDisplay:10.37,2013-05-11 05:26:00,
2013-05-11 01:31:00,61.3,56.8,29.90,WNW,289,1.7,3.1,85,0.00,-RA,,0.00,WeatherDisplay:10.37,2013-05-11 05:31:00,
2013-05-11 01:36:00,61.3,56.8,29.89,West,267,1.2,1.3,85,0.00,-RA,,0.00,WeatherDisplay:10.37,2013-05-11 05:36:00,
2013-05-11 01:41:00,61.2,56.6,29.90,West,267,2.2,2.3,85,0.00,-RA,,0.00,WeatherDisplay:10.37,2013-05-11 05:41:00,
2013-05-11 01:46:00,61.0,56.4,29.90,WSW,245,3.8,4.6,85,0.00,-RA,,0.00,WeatherDisplay:10.37,2013-05-11 05:46:00,
2013-05-11 01:51:00,60.8,56.3,29.90,SSW,199,2.6,3.5,85,0.00,-RA,,0.00,WeatherDisplay:10.37,2013-05-11 05:51:00,
2013-05-11 01:56:00,60.6,56.1,29.90,SW,222,2.7,2.7,85,0.00,-RA,,0.00,WeatherDisplay:10.37,2013-05-11 05:56:00,
2013-05-11 02:01:00,60.6,55.8,29.90,West,267,0.3,5.4,84,0.00,-RA,,0.00,WeatherDisplay:10.37,2013-05-11 06:01:00,
2013-05-11 02:06:00,60.6,55.8,29.90,SW,222,0.8,3.5,84,0.00,-RA,,0.00,WeatherDisplay:10.37,2013-05-11 06:06:00,
2013-05-11 02:11:00,60.4,55.6,29.90,West,267,2.2,2.3,84,0.00,-RA,,0.00,WeatherDisplay:10.37,2013-05-11 06:11:00,
2013-05-11 02:16:00,60.4,55.9,29.90,SSE,155,1.0,2.7,85,0.00,-RA,,0.00,WeatherDisplay:10.37,2013-05-11 06:16:00,
2013-05-11 02:21:00,60.3,55.7,29.90,WSW,245,3.5,3.6,85,0.00,-RA,,0.00,WeatherDisplay:10.37,2013-05-11 06:21:00,
2013-05-11 02:26:00,60.1,55.6,29.90,SW,222,2.9,3.5,85,0.00,-RA,,0.00,WeatherDisplay:10.37,2013-05-11 06:26:00,
2013-05-11 02:31:00,60.1,55.6,29.91,WSW,245,0.2,4.0,85,0.00,-RA,,0.00,WeatherDisplay:10.37,2013-05-11 06:31:00,
2013-05-11 02:36:00,59.9,55.4,29.90,WSW,245,0.0,0.0,85,0.00,-RA,,0.00,WeatherDisplay:10.37,2013-05-11 06:36:00,
2013-05-11 02:41:00,59.9,55.4,29.89,WSW,245,0.0,0.0,85,0.00,-RA,,0.00,WeatherDisplay:10.37,2013-05-11 06:41:00,
2013-05-11 02:46:00,59.9,55.4,29.89,WSW,245,1.2,3.1,85,0.00,-RA,,0.00,WeatherDisplay:10.37,2013-05-11 06:46:00,
2013-05-11 02:51:00,59.9,55.4,29.88,WSW,245,1.0,1.6,85,0.00,-RA,,0.00,WeatherDisplay:10.37,2013-05-11 06:51:00,
2013-05-11 02:56:00,59.7,55.2,29.89,WSW,245,0.0,3.5,85,0.00,-RA,,0.00,WeatherDisplay:10.37,2013-05-11 06:56:00,
2013-05-11 03:01:00,59.7,55.2,29.89,WSW,245,0.0,0.0,85,0.00,-RA,,0.00,WeatherDisplay:10.37,2013-05-11 07:01:00,
2013-05-11 03:06:00,59.9,55.4,29.89,SW,222,1.1,2.3,85,0.00,-RA,,0.00,WeatherDisplay:10.37,2013-05-11 07:06:00,
2013-05-11 03:11:00,59.7,55.2,29.89,West,267,4.2,8.1,85,0.00,OVC,,0.00,WeatherDisplay:10.37,2013-05-11 07:11:00,
2013-05-11 03:16:00,59.7,55.5,29.89,WNW,289,2.1,2.3,86,0.00,OVC,,0.00,WeatherDisplay:10.37,2013-05-11 07:16:00,
2013-05-11 03:21:00,59.7,55.5,29.89,WNW,289,2.5,3.5,86,0.00,OVC,,0.00,WeatherDisplay:10.37,2013-05-11 07:21:00,
2013-05-11 03:26:00,59.5,55.7,29.89,NW,312,2.2,2.3,87,0.00,OVC,,0.00,WeatherDisplay:10.37,2013-05-11 07:26:00,
2013-05-11 03:31:00,59.5,55.7,29.89,WNW,289,1.9,2.3,87,0.00,OVC,,0.00,WeatherDisplay:10.37,2013-05-11 07:31:00,
2013-05-11 03:36:00,59.5,55.7,29.89,West,267,0.0,0.0,87,0.00,OVC,,0.00,WeatherDisplay:10.37,2013-05-11 07:36:00,
2013-05-11 03:41:00,59.5,55.7,29.89,NW,312,0.8,2.3,87,0.00,OVC,,0.00,WeatherDisplay:10.37,2013-05-11 07:41:00,
2013-05-11 03:46:00,59.4,55.5,29.90,NW,312,1.5,4.0,87,0.00,OVC,,0.00,WeatherDisplay:10.37,2013-05-11 07:46:00,
2013-05-11 03:51:00,59.2,55.3,29.89,West,267,4.7,4.7,87,0.00,OVC,,0.00,WeatherDisplay:10.37,2013-05-11 07:51:00,
2013-05-11 03:56:00,58.8,55.0,29.89,NW,312,3.1,3.5,87,0.00,OVC,,0.00,WeatherDisplay:10.37,2013-05-11 07:56:00,
2013-05-11 04:01:00,58.8,55.0,29.90,NNW,335,4.2,4.6,87,0.00,OVC,,0.00,WeatherDisplay:10.37,2013-05-11 08:01:00,
2013-05-11 04:06:00,58.8,55.0,29.89,NNW,335,3.1,3.5,87,0.00,OVC,,0.00,WeatherDisplay:10.37,2013-05-11 08:06:00,
2013-05-11 04:11:00,58.8,55.0,29.89,NNW,335,1.8,2.3,87,0.00,OVC,,0.00,WeatherDisplay:10.37,2013-05-11 08:11:00,
2013-05-11 04:16:00,58.8,55.0,29.90,NNW,335,2.0,3.5,87,0.00,OVC,,0.00,WeatherDisplay:10.37,2013-05-11 08:16:00,
2013-05-11 04:21:00,58.6,54.8,29.89,WNW,289,2.9,3.5,87,0.00,OVC,,0.00,WeatherDisplay:10.37,2013-05-11 08:21:00,
2013-05-11 04:26:00,58.6,54.8,29.89,WNW,289,2.5,2.5,87,0.00,OVC,,0.00,WeatherDisplay:10.37,2013-05-11 08:26:00,
2013-05-11 04:31:00,58.5,54.6,29.90,WNW,289,6.7,6.9,87,0.00,OVC,,0.00,WeatherDisplay:10.37,2013-05-11 08:31:00,
2013-05-11 04:36:00,58.3,54.4,29.90,West,267,0.0,1.1,87,0.00,OVC,,0.00,WeatherDisplay:10.37,2013-05-11 08:36:00,
2013-05-11 04:41:00,58.3,54.4,29.90,NW,312,0.0,0.0,87,0.00,OVC,,0.00,WeatherDisplay:10.37,2013-05-11 08:41:00,
2013-05-11 04:46:00,58.3,54.4,29.90,West,267,7.4,11.5,87,0.00,OVC,,0.00,WeatherDisplay:10.37,2013-05-11 08:46:00,
2013-05-11 04:51:00,58.1,54.2,29.90,NW,312,10.1,11.5,87,0.00,OVC,,0.00,WeatherDisplay:10.37,2013-05-11 08:51:00,
2013-05-11 04:56:00,57.9,54.1,29.90,NW,312,6.5,6.9,87,0.00,OVC,,0.00,WeatherDisplay:10.37,2013-05-11 08:56:00,
2013-05-11 05:01:00,57.7,53.9,29.90,NW,312,9.2,9.2,87,0.00,OVC,,0.00,WeatherDisplay:10.37,2013-05-11 09:01:00,
2013-05-11 05:06:00,57.7,53.9,29.90,NE,42,0.3,2.3,87,0.00,OVC,,0.00,WeatherDisplay:10.37,2013-05-11 09:06:00,
2013-05-11 05:11:00,57.6,53.7,29.90,NNW,335,0.0,0.0,87,0.00,OVC,,0.00,WeatherDisplay:10.37,2013-05-11 09:11:00,
2013-05-11 05:16:00,57.4,53.5,29.90,NNW,335,1.1,3.8,87,0.00,OVC,,0.00,WeatherDisplay:10.37,2013-05-11 09:16:00,
2013-05-11 05:21:00,57.4,53.5,29.90,NW,312,6.4,7.4,87,0.00,OVC,,0.00,WeatherDisplay:10.37,2013-05-11 09:21:00,
2013-05-11 05:26:00,57.4,53.5,29.89,NNW,335,0.7,1.1,87,0.00,OVC,,0.00,WeatherDisplay:10.37,2013-05-11 09:26:00,
2013-05-11 05:31:00,57.0,53.2,29.89,NW,312,0.1,1.3,87,0.00,OVC,,0.00,WeatherDisplay:10.37,2013-05-11 09:31:00,
2013-05-11 05:36:00,57.0,53.2,29.89,NNW,335,5.6,5.8,87,0.00,OVC,,0.00,WeatherDisplay:10.37,2013-05-11 09:36:00,
2013-05-11 05:41:00,57.0,53.2,29.89,NW,312,0.9,1.1,87,0.00,OVC,,0.00,WeatherDisplay:10.37,2013-05-11 09:41:00,
2013-05-11 05:46:00,57.0,53.2,29.89,NNW,335,1.7,2.0,87,0.00,OVC,,0.00,WeatherDisplay:10.37,2013-05-11 09:46:00,
2013-05-11 05:51:00,56.8,53.0,29.89,NW,312,7.4,8.1,87,0.00,OVC,,0.00,WeatherDisplay:10.37,2013-05-11 09:51:00,
2013-05-11 05:56:00,56.8,53.0,29.89,NNW,335,2.0,2.3,87,0.00,OVC,,0.00,WeatherDisplay:10.37,2013-05-11 09:56:00,
2013-05-11 06:01:00,56.8,53.0,29.90,WNW,289,0.0,0.0,87,0.00,OVC,,0.00,WeatherDisplay:10.37,2013-05-11 10:01:00,
2013-05-11 06:06:00,56.7,52.8,29.91,NNW,335,1.6,2.3,87,0.00,OVC,,0.00,WeatherDisplay:10.37,2013-05-11 10:06:00,
2013-05-11 06:11:00,56.7,52.8,29.91,NNW,335,0.0,0.0,87,0.00,-DZ,,0.00,WeatherDisplay:10.37,2013-05-11 10:11:00,
2013-05-11 06:16:00,56.5,52.7,29.91,West,267,0.5,2.0,87,0.00,-DZ,,0.00,WeatherDisplay:10.37,2013-05-11 10:16:00,
2013-05-11 06:21:00,56.5,52.7,29.91,NW,312,1.4,1.6,87,0.00,-DZ,,0.00,WeatherDisplay:10.37,2013-05-11 10:21:00,
2013-05-11 06:26:00,56.5,52.7,29.91,NNW,335,0.9,1.1,87,0.00,-DZ,,0.00,WeatherDisplay:10.37,2013-05-11 10:26:00,
2013-05-11 06:31:00,56.5,52.7,29.91,NW,312,0.7,3.4,87,0.00,-DZ,,0.00,WeatherDisplay:10.37,2013-05-11 10:31:00,
2013-05-11 06:36:00,56.3,52.5,29.91,West,267,0.2,2.3,87,0.00,-DZ,,0.00,WeatherDisplay:10.37,2013-05-11 10:36:00,
2013-05-11 06:41:00,56.3,52.5,29.91,NNW,335,2.5,2.5,87,0.00,-DZ,,0.00,WeatherDisplay:10.37,2013-05-11 10:41:00,
2013-05-11 06:46:00,56.1,52.3,29.91,NNW,335,1.6,4.2,87,0.00,-DZ,,0.00,WeatherDisplay:10.37,2013-05-11 10:46:00,
2013-05-11 06:51:00,55.9,52.1,29.91,WSW,245,6.6,11.5,87,0.00,-DZ,,0.00,WeatherDisplay:10.37,2013-05-11 10:51:00,
2013-05-11 06:56:00,55.8,51.9,29.91,NNW,335,6.5,6.9,87,0.00,-DZ,,0.00,WeatherDisplay:10.37,2013-05-11 10:56:00,
2013-05-11 07:01:00,55.2,51.1,29.91,NW,312,4.2,4.6,86,0.00,-DZ,,0.00,WeatherDisplay:10.37,2013-05-11 11:01:00,
2013-05-11 07:06:00,55.0,50.9,29.91,NNW,335,4.2,6.9,86,0.00,-DZ,,0.00,WeatherDisplay:10.37,2013-05-11 11:06:00,
2013-05-11 07:11:00,54.9,50.8,29.91,NW,312,8.5,8.5,86,0.00,OVC,,0.00,WeatherDisplay:10.37,2013-05-11 11:11:00,
2013-05-11 07:16:00,54.7,50.9,29.91,WNW,289,0.7,2.5,87,0.00,OVC,,0.00,WeatherDisplay:10.37,2013-05-11 11:16:00,
2013-05-11 07:21:00,54.5,50.7,29.92,WNW,289,0.0,0.0,87,0.00,OVC,,0.00,WeatherDisplay:10.37,2013-05-11 11:21:00,
2013-05-11 07:26:00,54.5,50.7,29.92,WNW,289,0.0,0.0,87,0.00,OVC,,0.00,WeatherDisplay:10.37,2013-05-11 11:26:00,
2013-05-11 07:31:00,54.5,50.7,29.92,NNW,335,2.5,2.5,87,0.00,OVC,,0.00,WeatherDisplay:10.37,2013-05-11 11:31:00,
2013-05-11 07:36:00,54.5,50.7,29.92,NW,312,3.0,3.6,87,0.00,OVC,,0.00,WeatherDisplay:10.37,2013-05-11 11:36:00,
2013-05-11 07:41:00,54.3,50.5,29.92,West,267,0.0,0.0,87,0.00,OVC,,0.00,WeatherDisplay:10.37,2013-05-11 11:41:00,
2013-05-11 07:46:00,54.5,50.7,29.93,NNW,335,3.2,4.6,87,0.00,OVC,,0.00,WeatherDisplay:10.37,2013-05-11 11:46:00,
2013-05-11 07:51:00,54.5,50.7,29.93,West,267,0.0,0.0,87,0.00,OVC,,0.00,WeatherDisplay:10.37,2013-05-11 11:51:00,
2013-05-11 07:56:00,54.5,50.7,29.92,NW,312,1.3,1.3,87,0.00,OVC,,0.00,WeatherDisplay:10.37,2013-05-11 11:56:00,
2013-05-11 08:01:00,54.3,50.5,29.92,NW,312,1.7,5.1,87,0.00,OVC,,0.00,WeatherDisplay:10.37,2013-05-11 12:01:00,
2013-05-11 08:06:00,54.3,50.5,29.92,NW,312,2.9,3.5,87,0.00,OVC,,0.00,WeatherDisplay:10.37,2013-05-11 12:06:00,
2013-05-11 08:11:00,54.5,50.7,29.92,WNW,289,3.6,3.6,87,0.00,-DZ,,0.00,WeatherDisplay:10.37,2013-05-11 12:11:00,
2013-05-11 08:16:00,54.5,50.7,29.92,NNW,335,2.8,4.9,87,0.00,-DZ,,0.00,WeatherDisplay:10.37,2013-05-11 12:16:00,
2013-05-11 08:21:00,54.5,50.7,29.93,NNW,335,1.3,2.5,87,0.00,-DZ,,0.00,WeatherDisplay:10.37,2013-05-11 12:21:00,
2013-05-11 08:26:00,54.5,50.7,29.93,West,267,4.2,4.6,87,0.00,-DZ,,0.00,WeatherDisplay:10.37,2013-05-11 12:26:00,
2013-05-11 08:31:00,54.5,50.7,29.93,West,267,2.9,3.5,87,0.00,-DZ,,0.00,WeatherDisplay:10.37,2013-05-11 12:31:00,
2013-05-11 08:36:00,54.7,50.9,29.93,NW,312,0.0,0.0,87,0.00,-DZ,,0.00,WeatherDisplay:10.37,2013-05-11 12:36:00,
2013-05-11 08:41:00,54.7,50.6,29.94,NW,312,7.6,8.1,86,0.00,-DZ,,0.00,WeatherDisplay:10.37,2013-05-11 12:41:00,
2013-05-11 08:46:00,54.9,50.8,29.94,WNW,289,2.0,2.3,86,0.00,-DZ,,0.00,WeatherDisplay:10.37,2013-05-11 12:46:00,
2013-05-11 08:51:00,55.0,50.9,29.94,WNW,289,2.0,2.3,86,0.00,-DZ,,0.00,WeatherDisplay:10.37,2013-05-11 12:51:00,
2013-05-11 08:56:00,55.2,51.1,29.94,WNW,289,0.7,1.1,86,0.00,-DZ,,0.00,WeatherDisplay:10.37,2013-05-11 12:56:00,
2013-05-11 09:01:00,55.4,51.0,29.95,NW,312,2.5,4.6,85,0.00,-DZ,,0.00,WeatherDisplay:10.37,2013-05-11 13:01:00,
2013-05-11 09:06:00,55.8,51.3,29.94,WNW,289,0.0,1.1,85,0.00,-DZ,,0.00,WeatherDisplay:10.37,2013-05-11 13:06:00,
2013-05-11 09:11:00,55.9,51.5,29.95,WNW,289,4.2,4.6,85,0.00,OVC,,0.00,WeatherDisplay:10.37,2013-05-11 13:11:00,
2013-05-11 09:16:00,55.9,51.2,29.95,NNW,335,2.2,2.3,84,0.00,OVC,,0.00,WeatherDisplay:10.37,2013-05-11 13:16:00,
2013-05-11 09:21:00,55.9,51.2,29.95,NW,312,1.4,3.5,84,0.00,OVC,,0.00,WeatherDisplay:10.37,2013-05-11 13:21:00,
2013-05-11 09:26:00,55.9,50.9,29.95,WNW,289,6.0,6.0,83,0.00,OVC,,0.00,WeatherDisplay:10.37,2013-05-11 13:26:00,
2013-05-11 09:31:00,55.9,50.9,29.95,West,267,4.0,4.0,83,0.00,OVC,,0.00,WeatherDisplay:10.37,2013-05-11 13:31:00,
2013-05-11 09:36:00,55.9,50.5,29.95,NNW,335,3.1,3.5,82,0.00,OVC,,0.00,WeatherDisplay:10.37,2013-05-11 13:36:00,
2013-05-11 09:41:00,55.9,50.5,29.95,WNW,289,11.2,11.5,82,0.00,OVC,,0.00,WeatherDisplay:10.37,2013-05-11 13:41:00,
2013-05-11 09:46:00,55.6,50.5,29.94,WNW,289,3.2,4.2,83,0.00,OVC,,0.00,WeatherDisplay:10.37,2013-05-11 13:46:00,
2013-05-11 09:51:00,55.6,50.5,29.94,NW,312,1.1,4.9,83,0.00,OVC,,0.00,WeatherDisplay:10.37,2013-05-11 13:51:00,
2013-05-11 09:56:00,55.8,50.7,29.94,NNW,335,3.9,4.6,83,0.00,OVC,,0.00,WeatherDisplay:10.37,2013-05-11 13:56:00,
2013-05-11 10:01:00,55.8,50.3,29.94,NW,312,2.0,6.3,82,0.00,OVC,,0.00,WeatherDisplay:10.37,2013-05-11 14:01:00,
2013-05-11 10:06:00,55.9,50.5,29.93,NW,312,0.0,5.8,82,0.00,OVC,,0.00,WeatherDisplay:10.37,2013-05-11 14:06:00,
2013-05-11 10:11:00,56.1,50.7,29.94,NW,312,3.1,3.5,82,0.00,OVC,,0.00,WeatherDisplay:10.37,2013-05-11 14:11:00,
2013-05-11 10:16:00,56.5,51.1,29.94,NW,312,7.4,7.4,82,0.00,OVC,,0.00,WeatherDisplay:10.37,2013-05-11 14:16:00,
2013-05-11 10:21:00,56.7,51.2,29.94,NW,312,4.0,6.9,82,0.00,OVC,,0.00,WeatherDisplay:10.37,2013-05-11 14:21:00,
2013-05-11 10:26:00,56.7,51.2,29.94,NW,312,4.0,6.9,82,0.00,OVC,,0.00,WeatherDisplay:10.37,2013-05-11 14:26:00,
2013-05-11 10:31:00,56.7,50.6,29.94,WNW,289,6.8,6.9,80,0.00,OVC,,0.00,WeatherDisplay:10.37,2013-05-11 14:31:00,
2013-05-11 10:36:00,56.8,50.7,29.94,West,267,3.7,3.7,80,0.00,OVC,,0.00,WeatherDisplay:10.37,2013-05-11 14:36:00,
2013-05-11 10:41:00,56.8,50.7,29.94,West,267,2.9,3.5,80,0.00,OVC,,0.00,WeatherDisplay:10.37,2013-05-11 14:41:00,
2013-05-11 10:46:00,56.8,50.7,29.95,West,267,2.9,0.0,80,0.00,OVC,,0.00,WeatherDisplay:10.37,2013-05-11 14:46:00,
2013-05-11 10:51:00,56.8,50.7,29.95,WNW,289,0.0,2.3,80,0.00,OVC,,0.00,WeatherDisplay:10.37,2013-05-11 14:51:00,
2013-05-11 10:56:00,56.3,50.2,29.95,West,267,3.8,3.8,80,0.00,OVC,,0.00,WeatherDisplay:10.37,2013-05-11 14:56:00,
2013-05-11 11:01:00,56.3,50.2,29.95,NNW,335,4.0,6.0,80,0.00,OVC,,0.00,WeatherDisplay:10.37,2013-05-11 15:01:00,
2013-05-11 11:06:00,56.5,50.4,29.95,NW,312,2.9,3.5,80,0.00,OVC,,0.00,WeatherDisplay:10.37,2013-05-11 15:06:00,
2013-05-11 11:11:00,56.5,50.0,29.95,West,267,2.9,3.5,79,0.00,OVC,,0.00,WeatherDisplay:10.37,2013-05-11 15:11:00,
2013-05-11 11:16:00,56.5,49.7,29.95,West,267,3.8,3.8,78,0.00,OVC,,0.00,WeatherDisplay:10.37,2013-05-11 15:16:00,
2013-05-11 11:21:00,56.5,49.7,29.95,NNW,335,3.8,4.0,78,0.00,OVC,,0.00,WeatherDisplay:10.37,2013-05-11 15:21:00,
2013-05-11 11:26:00,56.5,49.7,29.96,NW,312,2.5,2.5,78,0.00,OVC,,0.00,WeatherDisplay:10.37,2013-05-11 15:26:00,
2013-05-11 11:31:00,56.3,49.5,29.96,WNW,289,2.6,4.7,78,0.00,OVC,,0.00,WeatherDisplay:10.37,2013-05-11 15:31:00,
2013-05-11 11:36:00,55.9,49.2,29.97,WNW,289,3.6,3.6,78,0.00,OVC,,0.00,WeatherDisplay:10.37,2013-05-11 15:36:00,
2013-05-11 11:41:00,55.9,49.2,29.97,WSW,245,3.1,3.5,78,0.00,OVC,,0.00,WeatherDisplay:10.37,2013-05-11 15:41:00,
2013-05-11 11:46:00,55.9,49.5,29.96,West,267,4.5,4.7,79,0.00,OVC,,0.00,WeatherDisplay:10.37,2013-05-11 15:46:00,
2013-05-11 11:51:00,56.1,49.7,29.96,West,267,3.5,3.5,79,0.00,OVC,,0.00,WeatherDisplay:10.37,2013-05-11 15:51:00,
2013-05-11 11:56:00,56.1,49.4,29.95,West,267,2.5,2.5,78,0.00,OVC,,0.00,WeatherDisplay:10.37,2013-05-11 15:56:00,
2013-05-11 12:01:00,56.3,49.5,29.95,NW,312,6.1,6.1,78,0.00,OVC,,0.00,WeatherDisplay:10.37,2013-05-11 16:01:00,
2013-05-11 12:06:00,56.3,49.5,29.95,WSW,245,5.4,5.8,78,0.00,OVC,,0.00,WeatherDisplay:10.37,2013-05-11 16:06:00,
2013-05-11 12:11:00,56.3,49.5,29.96,WSW,245,10.1,10.4,78,0.00,OVC,,0.00,WeatherDisplay:10.37,2013-05-11 16:11:00,
2013-05-11 12:16:00,56.5,49.4,29.96,WNW,289,4.0,4.0,77,0.00,OVC,,0.00,WeatherDisplay:10.37,2013-05-11 16:16:00,
2013-05-11 12:21:00,56.8,49.7,29.95,West,267,10.0,13.9,77,0.00,OVC,,0.00,WeatherDisplay:10.37,2013-05-11 16:21:00,
2013-05-11 12:26:00,57.0,49.9,29.95,NW,312,1.8,2.3,77,0.00,OVC,,0.00,WeatherDisplay:10.37,2013-05-11 16:26:00,
2013-05-11 12:31:00,57.4,49.9,29.95,West,267,10.5,10.5,76,0.00,OVC,,0.00,WeatherDisplay:10.37,2013-05-11 16:31:00,
2013-05-11 12:36:00,57.7,50.2,29.95,WNW,289,1.8,5.8,76,0.00,OVC,,0.00,WeatherDisplay:10.37,2013-05-11 16:36:00,
2013-05-11 12:41:00,58.3,50.4,29.95,West,267,4.5,4.6,75,0.00,OVC,,0.00,WeatherDisplay:10.37,2013-05-11 16:41:00,
2013-05-11 12:46:00,59.5,51.2,29.95,NNW,335,3.6,4.7,74,0.00,OVC,,0.00,WeatherDisplay:10.37,2013-05-11 16:46:00,
2013-05-11 12:51:00,59.5,50.5,29.95,West,267,2.0,8.1,72,0.00,OVC,,0.00,WeatherDisplay:10.37,2013-05-11 16:51:00,
2013-05-11 12:56:00,59.5,50.5,29.95,West,267,9.4,9.4,72,0.00,OVC,,0.00,WeatherDisplay:10.37,2013-05-11 16:56:00,
2013-05-11 13:01:00,59.5,50.1,29.96,WNW,289,6.0,6.0,71,0.00,OVC,,0.00,WeatherDisplay:10.37,2013-05-11 17:01:00,
2013-05-11 13:06:00,59.5,50.1,29.96,WNW,289,6.0,6.0,71,0.00,OVC,,0.00,WeatherDisplay:10.37,2013-05-11 17:06:00,
2013-05-11 13:11:00,59.5,49.7,29.96,West,267,6.0,6.0,70,0.00,OVC,,0.00,WeatherDisplay:10.37,2013-05-11 17:11:00,
2013-05-11 13:16:00,59.7,49.9,29.97,North,357,3.8,6.9,70,0.00,OVC,,0.00,WeatherDisplay:10.37,2013-05-11 17:16:00,
2013-05-11 13:21:00,59.5,49.7,29.96,NW,312,5.7,6.9,70,0.00,OVC,,0.00,WeatherDisplay:10.37,2013-05-11 17:21:00,
2013-05-11 13:26:00,59.4,49.6,29.96,WSW,245,5.8,5.8,70,0.00,OVC,,0.00,WeatherDisplay:10.37,2013-05-11 17:26:00,
2013-05-11 13:31:00,59.4,50.0,29.95,West,267,3.6,4.2,71,0.00,OVC,,0.00,WeatherDisplay:10.37,2013-05-11 17:31:00,
2013-05-11 13:36:00,59.7,49.9,29.95,NW,312,14.1,14.1,70,0.00,OVC,,0.00,WeatherDisplay:10.37,2013-05-11 17:36:00,
2013-05-11 13:41:00,59.0,49.2,29.96,NW,312,3.6,3.6,70,0.00,OVC,,0.00,WeatherDisplay:10.37,2013-05-11 17:41:00,
2013-05-11 13:46:00,58.8,49.4,29.95,North,357,3.7,3.8,71,0.00,OVC,,0.00,WeatherDisplay:10.37,2013-05-11 17:46:00,
2013-05-11 13:51:00,59.2,49.4,29.95,WNW,289,3.2,3.6,70,0.00,OVC,,0.00,WeatherDisplay:10.37,2013-05-11 17:51:00,
2013-05-11 13:56:00,59.7,49.9,29.95,West,267,5.8,5.8,70,0.00,OVC,,0.00,WeatherDisplay:10.37,2013-05-11 17:56:00,
2013-05-11 14:01:00,59.7,49.9,29.96,WNW,289,7.7,8.1,70,0.00,OVC,,0.00,WeatherDisplay:10.37,2013-05-11 18:01:00,
2013-05-11 14:06:00,59.4,49.6,29.96,North,357,5.1,5.1,70,0.00,OVC,,0.00,WeatherDisplay:10.37,2013-05-11 18:06:00,
2013-05-11 14:11:00,58.8,49.1,29.96,West,267,5.0,5.8,70,0.00,OVC,,0.00,WeatherDisplay:10.37,2013-05-11 18:11:00,
2013-05-11 14:16:00,58.8,49.1,29.96,West,267,4.8,5.8,70,0.00,OVC,,0.00,WeatherDisplay:10.37,2013-05-11 18:16:00,
2013-05-11 14:21:00,59.0,49.6,29.96,WSW,245,3.5,4.7,71,0.00,OVC,,0.00,WeatherDisplay:10.37,2013-05-11 18:21:00,
2013-05-11 14:26:00,59.4,50.3,29.95,SW,222,5.6,5.8,72,0.00,OVC,,0.00,WeatherDisplay:10.37,2013-05-11 18:26:00,
2013-05-11 14:31:00,59.9,50.5,29.95,WSW,245,4.0,4.6,71,0.00,OVC,,0.00,WeatherDisplay:10.37,2013-05-11 18:31:00,
2013-05-11 14:36:00,60.4,50.6,29.95,WSW,245,6.7,6.9,70,0.00,OVC,,0.00,WeatherDisplay:10.37,2013-05-11 18:36:00,
2013-05-11 14:41:00,60.4,50.6,29.95,West,267,7.2,7.2,70,0.00,OVC,,0.00,WeatherDisplay:10.37,2013-05-11 18:41:00,
2013-05-11 14:46:00,60.6,50.0,29.95,WNW,289,17.6,19.6,68,0.00,OVC,,0.00,WeatherDisplay:10.37,2013-05-11 18:46:00,
2013-05-11 14:51:00,60.8,50.2,29.95,WNW,289,2.5,6.9,68,0.00,OVC,,0.00,WeatherDisplay:10.37,2013-05-11 18:51:00,
2013-05-11 14:56:00,61.0,49.9,29.95,West,267,8.9,9.2,67,0.00,OVC,,0.00,WeatherDisplay:10.37,2013-05-11 18:56:00,
2013-05-11 15:01:00,60.6,49.6,29.95,West,267,14.5,15.0,67,0.00,OVC,,0.00,WeatherDisplay:10.37,2013-05-11 19:01:00,
2013-05-11 15:06:00,60.4,49.8,29.95,WNW,289,5.4,5.8,68,0.00,OVC,,0.00,WeatherDisplay:10.37,2013-05-11 19:06:00,
2013-05-11 15:11:00,59.9,49.3,29.95,WNW,289,0.0,0.0,68,0.00,OVC,,0.00,WeatherDisplay:10.37,2013-05-11 19:11:00,
2013-05-11 15:16:00,60.4,50.2,29.95,WSW,245,7.1,8.1,69,0.00,OVC,,0.00,WeatherDisplay:10.37,2013-05-11 19:16:00,
2013-05-11 15:21:00,61.5,50.9,29.95,NW,312,4.5,4.6,68,0.00,OVC,,0.00,WeatherDisplay:10.37,2013-05-11 19:21:00,
2013-05-11 15:26:00,62.1,50.6,29.96,West,267,3.6,3.6,66,0.00,OVC,,0.00,WeatherDisplay:10.37,2013-05-11 19:26:00,
2013-05-11 15:31:00,61.7,49.8,29.96,West,267,5.0,6.9,65,0.00,OVC,,0.00,WeatherDisplay:10.37,2013-05-11 19:31:00,
2013-05-11 15:36:00,61.7,50.2,29.95,WNW,289,4.9,4.9,66,0.00,OVC,,0.00,WeatherDisplay:10.37,2013-05-11 19:36:00,
2013-05-11 15:41:00,61.3,50.3,29.95,West,267,5.1,7.6,67,0.00,OVC,,0.00,WeatherDisplay:10.37,2013-05-11 19:41:00,
2013-05-11 15:46:00,61.2,49.7,29.95,West,267,4.6,5.8,66,0.00,OVC,,0.00,WeatherDisplay:10.37,2013-05-11 19:46:00,
2013-05-11 15:51:00,61.3,49.9,29.94,NW,312,5.8,5.8,66,0.00,OVC,,0.00,WeatherDisplay:10.37,2013-05-11 19:51:00,
2013-05-11 15:56:00,61.7,49.8,29.95,West,267,5.8,5.8,65,0.00,OVC,,0.00,WeatherDisplay:10.37,2013-05-11 19:56:00,
2013-05-11 16:01:00,61.7,49.8,29.94,West,267,0.7,3.5,65,0.00,OVC,,0.00,WeatherDisplay:10.37,2013-05-11 20:01:00,
2013-05-11 16:06:00,61.7,49.8,29.94,WSW,245,1.6,9.2,65,0.00,OVC,,0.00,WeatherDisplay:10.37,2013-05-11 20:06:00,
2013-05-11 16:11:00,61.9,50.0,29.94,SW,222,2.7,2.7,65,0.00,OVC,,0.00,WeatherDisplay:10.37,2013-05-11 20:11:00,
2013-05-11 16:16:00,61.9,50.0,29.94,NNW,335,6.9,8.1,65,0.00,OVC,,0.00,WeatherDisplay:10.37,2013-05-11 20:16:00,
2013-05-11 16:21:00,61.9,50.0,29.94,WSW,245,2.6,12.7,65,0.00,OVC,,0.00,WeatherDisplay:10.37,2013-05-11 20:21:00,
2013-05-11 16:26:00,61.9,50.4,29.95,West,267,7.2,7.2,66,0.00,OVC,,0.00,WeatherDisplay:10.37,2013-05-11 20:26:00,
2013-05-11 16:31:00,61.7,50.2,29.95,NW,312,11.6,11.6,66,0.00,OVC,,0.00,WeatherDisplay:10.37,2013-05-11 20:31:00,
2013-05-11 16:36:00,61.7,50.2,29.95,NW,312,7.2,7.2,66,0.00,OVC,,0.00,WeatherDisplay:10.37,2013-05-11 20:36:00,
2013-05-11 16:41:00,61.7,50.2,29.95,NW,312,7.2,7.2,66,0.00,OVC,,0.00,WeatherDisplay:10.37,2013-05-11 20:41:00,
2013-05-11 16:46:00,61.7,50.2,29.95,West,267,7.2,7.2,66,0.00,OVC,,0.00,WeatherDisplay:10.37,2013-05-11 20:46:00,
2013-05-11 16:51:00,61.7,50.2,29.95,West,267,6.5,8.1,66,0.00,OVC,,0.00,WeatherDisplay:10.37,2013-05-11 20:51:00,
2013-05-11 16:56:00,61.7,50.2,29.95,West,267,6.5,8.1,66,0.00,OVC,,0.00,WeatherDisplay:10.37,2013-05-11 20:56:00,
2013-05-11 17:01:00,62.2,50.7,29.95,WSW,245,0.1,4.5,66,0.00,OVC,,0.00,WeatherDisplay:10.37,2013-05-11 21:01:00,
2013-05-11 17:06:00,62.4,50.9,29.95,SW,222,3.8,3.8,66,0.00,OVC,,0.00,WeatherDisplay:10.37,2013-05-11 21:06:00,
2013-05-11 17:11:00,63.0,51.0,29.95,West,267,4.2,4.6,65,0.00,SCT,,0.00,WeatherDisplay:10.37,2013-05-11 21:11:00,
2013-05-11 17:16:00,63.0,51.0,29.95,West,267,1.3,1.3,65,0.00,SCT,,0.00,WeatherDisplay:10.37,2013-05-11 21:16:00,
2013-05-11 17:21:00,63.3,50.9,29.95,WSW,245,4.8,5.8,64,0.00,SCT,,0.00,WeatherDisplay:10.37,2013-05-11 21:21:00,
2013-05-11 17:26:00,63.5,51.1,29.94,WNW,289,4.2,4.6,64,0.00,SCT,,0.00,WeatherDisplay:10.37,2013-05-11 21:26:00,
2013-05-11 17:31:00,63.9,51.4,29.94,West,267,4.5,4.6,64,0.00,SCT,,0.00,WeatherDisplay:10.37,2013-05-11 21:31:00,
2013-05-11 17:36:00,64.9,52.5,29.94,SSW,199,2.9,3.5,64,0.00,SCT,,0.00,WeatherDisplay:10.37,2013-05-11 21:36:00,
2013-05-11 17:41:00,65.1,52.2,29.94,WSW,245,1.0,1.1,63,0.00,SCT,,0.00,WeatherDisplay:10.37,2013-05-11 21:41:00,
2013-05-11 17:46:00,65.5,52.1,29.94,West,267,3.6,3.6,62,0.00,SCT,,0.00,WeatherDisplay:10.37,2013-05-11 21:46:00,
2013-05-11 17:51:00,65.5,51.7,29.94,WNW,289,4.2,4.6,61,0.00,SCT,,0.00,WeatherDisplay:10.37,2013-05-11 21:51:00,
2013-05-11 17:56:00,65.5,51.7,29.94,West,267,4.0,4.0,61,0.00,SCT,,0.00,WeatherDisplay:10.37,2013-05-11 21:56:00,
2013-05-11 18:01:00,65.5,51.7,29.94,West,267,4.2,4.6,61,0.00,SCT,,0.00,WeatherDisplay:10.37,2013-05-11 22:01:00,
2013-05-11 18:06:00,65.7,51.4,29.94,WSW,245,5.6,8.1,60,0.00,SCT,,0.00,WeatherDisplay:10.37,2013-05-11 22:06:00,
2013-05-11 18:11:00,65.5,51.2,29.94,NW,312,10.1,10.4,60,0.00,BKN,,0.00,WeatherDisplay:10.37,2013-05-11 22:11:00,
2013-05-11 18:16:00,64.9,50.3,29.94,NNW,335,6.3,6.9,59,0.00,BKN,,0.00,WeatherDisplay:10.37,2013-05-11 22:16:00,
2013-05-11 18:21:00,64.4,50.2,29.94,NW,312,7.6,9.2,60,0.00,BKN,,0.00,WeatherDisplay:10.37,2013-05-11 22:21:00,
2013-05-11 18:26:00,64.0,49.9,29.94,West,267,2.0,5.8,60,0.00,BKN,,0.00,WeatherDisplay:10.37,2013-05-11 22:26:00,
2013-05-11 18:31:00,64.0,50.3,29.93,South,177,1.1,3.5,61,0.00,BKN,,0.00,WeatherDisplay:10.37,2013-05-11 22:31:00,
2013-05-11 18:36:00,64.0,50.3,29.93,WSW,245,1.9,3.5,61,0.00,BKN,,0.00,WeatherDisplay:10.37,2013-05-11 22:36:00,
2013-05-11 18:41:00,64.4,50.7,29.93,WNW,289,3.1,3.5,61,0.00,BKN,,0.00,WeatherDisplay:10.37,2013-05-11 22:41:00,
2013-05-11 18:46:00,64.6,50.8,29.93,West,267,3.8,3.8,61,0.00,BKN,,0.00,WeatherDisplay:10.37,2013-05-11 22:46:00,
2013-05-11 18:51:00,64.8,51.0,29.93,West,267,4.2,4.2,61,0.00,BKN,,0.00,WeatherDisplay:10.37,2013-05-11 22:51:00,
2013-05-11 18:56:00,65.1,51.3,29.93,West,267,4.2,4.2,61,0.00,BKN,,0.00,WeatherDisplay:10.37,2013-05-11 22:56:00,
2013-05-11 19:01:00,64.9,51.2,29.93,SW,222,0.0,0.0,61,0.00,BKN,,0.00,WeatherDisplay:10.37,2013-05-11 23:01:00,
2013-05-11 19:06:00,64.9,51.2,29.92,WSW,245,3.1,3.5,61,0.00,BKN,,0.00,WeatherDisplay:10.37,2013-05-11 23:06:00,
2013-05-11 19:11:00,64.9,51.2,29.92,WSW,245,3.1,3.5,61,0.00,CLR,,0.00,WeatherDisplay:10.37,2013-05-11 23:11:00,
2013-05-11 19:16:00,64.9,51.2,29.92,West,267,7.4,7.4,61,0.00,CLR,,0.00,WeatherDisplay:10.37,2013-05-11 23:16:00,
2013-05-11 19:21:00,64.8,51.0,29.93,West,267,4.5,4.6,61,0.00,CLR,,0.00,WeatherDisplay:10.37,2013-05-11 23:21:00,
2013-05-11 19:26:00,64.6,50.8,29.92,WSW,245,4.4,4.4,61,0.00,CLR,,0.00,WeatherDisplay:10.37,2013-05-11 23:26:00,
2013-05-11 19:31:00,64.2,50.5,29.92,West,267,2.5,2.5,61,0.00,CLR,,0.00,WeatherDisplay:10.37,2013-05-11 23:31:00,
2013-05-11 19:36:00,64.0,50.3,29.93,WSW,245,3.4,3.5,61,0.00,CLR,,0.00,WeatherDisplay:10.37,2013-05-11 23:36:00,
2013-05-11 19:41:00,63.3,50.1,29.93,WSW,245,4.0,5.8,62,0.00,CLR,,0.00,WeatherDisplay:10.37,2013-05-11 23:41:00,
2013-05-11 19:46:00,62.8,49.6,29.93,WNW,289,1.4,1.4,62,0.00,CLR,,0.00,WeatherDisplay:10.37,2013-05-11 23:46:00,
2013-05-11 19:51:00,62.4,49.7,29.92,WSW,245,3.8,3.8,63,0.00,CLR,,0.00,WeatherDisplay:10.37,2013-05-11 23:51:00,
2013-05-11 19:56:00,62.4,50.1,29.92,SW,222,0.0,0.0,64,0.00,CLR,,0.00,WeatherDisplay:10.37,2013-05-11 23:56:00,
2013-05-11 20:01:00,62.2,50.3,29.92,WSW,245,0.0,0.0,65,0.00,CLR,,0.00,WeatherDisplay:10.37,2013-05-12 00:01:00,
2013-05-11 20:06:00,62.1,50.2,29.93,WSW,245,0.0,0.0,65,0.00,CLR,,0.00,WeatherDisplay:10.37,2013-05-12 00:06:00,
2013-05-11 20:11:00,61.9,50.4,29.92,WSW,245,0.5,0.0,66,0.00,OVC,,0.00,WeatherDisplay:10.37,2013-05-12 00:11:00,
2013-05-11 20:16:00,61.9,50.8,29.92,South,177,1.2,0.0,67,0.00,OVC,,0.00,WeatherDisplay:10.37,2013-05-12 00:16:00,
2013-05-11 20:21:00,61.9,50.8,29.93,SW,222,2.3,3.5,67,0.00,OVC,,0.00,WeatherDisplay:10.37,2013-05-12 00:21:00,
2013-05-11 20:26:00,61.2,50.5,29.93,WSW,245,1.1,1.1,68,0.00,OVC,,0.00,WeatherDisplay:10.37,2013-05-12 00:26:00,
2013-05-11 20:31:00,61.0,50.3,29.93,West,267,1.2,1.2,68,0.00,OVC,,0.00,WeatherDisplay:10.37,2013-05-12 00:31:00,
2013-05-11 20:36:00,61.0,50.3,29.93,WSW,245,0.0,0.0,68,0.00,OVC,,0.00,WeatherDisplay:10.37,2013-05-12 00:36:00,
2013-05-11 20:41:00,61.0,50.3,29.93,West,267,2.2,2.3,68,0.00,OVC,,0.00,WeatherDisplay:10.37,2013-05-12 00:41:00,
2013-05-11 20:46:00,61.0,50.7,29.94,West,267,2.3,0.0,69,0.00,OVC,,0.00,WeatherDisplay:10.37,2013-05-12 00:46:00,
2013-05-11 20:51:00,61.0,50.7,29.94,WSW,245,1.3,3.5,69,0.00,OVC,,0.00,WeatherDisplay:10.37,2013-05-12 00:51:00,
2013-05-11 20:56:00,60.1,50.3,29.94,West,267,5.1,5.1,70,0.00,OVC,,0.00,WeatherDisplay:10.37,2013-05-12 00:56:00,
2013-05-11 21:01:00,59.7,49.9,29.94,WNW,289,2.6,3.5,70,0.00,OVC,,0.00,WeatherDisplay:10.37,2013-05-12 01:01:00,
2013-05-11 21:06:00,59.5,50.1,29.94,West,267,6.3,6.3,71,0.00,OVC,,0.00,WeatherDisplay:10.37,2013-05-12 01:06:00,
2013-05-11 21:11:00,59.2,50.2,29.94,West,267,4.5,4.6,72,0.00,OVC,,0.00,WeatherDisplay:10.37,2013-05-12 01:11:00,
2013-05-11 21:16:00,59.2,50.2,29.94,SW,222,1.9,2.3,72,0.00,OVC,,0.00,WeatherDisplay:10.37,2013-05-12 01:16:00,
2013-05-11 21:21:00,58.8,50.2,29.94,SW,222,2.0,4.6,73,0.00,OVC,,0.00,WeatherDisplay:10.37,2013-05-12 01:21:00,
2013-05-11 21:26:00,58.3,50.0,29.94,WSW,245,1.6,2.3,74,0.00,OVC,,0.00,WeatherDisplay:10.37,2013-05-12 01:26:00,
2013-05-11 21:31:00,58.3,50.4,29.95,WSW,245,2.2,6.9,75,0.00,OVC,,0.00,WeatherDisplay:10.37,2013-05-12 01:31:00,
2013-05-11 21:36:00,58.3,50.4,29.95,WSW,245,5.7,5.8,75,0.00,OVC,,0.00,WeatherDisplay:10.37,2013-05-12 01:36:00,
2013-05-11 21:41:00,58.3,50.7,29.95,West,267,2.0,2.3,76,0.00,OVC,,0.00,WeatherDisplay:10.37,2013-05-12 01:41:00,
2013-05-11 21:46:00,58.3,50.7,29.96,West,267,3.8,4.6,76,0.00,OVC,,0.00,WeatherDisplay:10.37,2013-05-12 01:46:00,
2013-05-11 21:51:00,58.3,51.1,29.96,West,267,1.3,1.3,77,0.00,OVC,,0.00,WeatherDisplay:10.37,2013-05-12 01:51:00,
2013-05-11 21:56:00,58.3,51.4,29.97,NW,312,4.0,4.0,78,0.00,OVC,,0.00,WeatherDisplay:10.37,2013-05-12 01:56:00,
2013-05-11 22:01:00,57.4,50.9,29.97,NW,312,0.0,2.3,79,0.00,OVC,,0.00,WeatherDisplay:10.37,2013-05-12 02:01:00,
2013-05-11 22:06:00,57.4,50.6,29.98,WNW,289,2.5,2.5,78,0.00,OVC,,0.00,WeatherDisplay:10.37,2013-05-12 02:06:00,
2013-05-11 22:11:00,57.0,50.6,29.98,West,267,0.7,4.6,79,0.00,BKN,,0.00,WeatherDisplay:10.37,2013-05-12 02:11:00,
2013-05-11 22:16:00,57.0,50.2,29.98,WNW,289,3.1,3.5,78,0.00,BKN,,0.00,WeatherDisplay:10.37,2013-05-12 02:16:00,
2013-05-11 22:21:00,56.8,50.1,29.98,NW,312,8.1,10.4,78,0.00,BKN,,0.00,WeatherDisplay:10.37,2013-05-12 02:21:00,
2013-05-11 22:26:00,56.8,48.3,29.99,NW,312,7.8,8.1,73,0.00,BKN,,0.00,WeatherDisplay:10.37,2013-05-12 02:26:00,
2013-05-11 22:31:00,56.8,47.2,30.00,NW,312,5.1,6.9,70,0.00,BKN,,0.00,WeatherDisplay:10.37,2013-05-12 02:31:00,
2013-05-11 22:36:00,56.5,45.3,30.00,NW,312,9.5,16.1,66,0.00,BKN,,0.00,WeatherDisplay:10.37,2013-05-12 02:36:00,
2013-05-11 22:41:00,56.3,43.9,30.00,NW,312,7.3,13.6,63,0.00,BKN,,0.00,WeatherDisplay:10.37,2013-05-12 02:41:00,
2013-05-11 22:46:00,56.3,43.4,30.00,North,357,14.5,15.0,62,0.00,BKN,,0.00,WeatherDisplay:10.37,2013-05-12 02:46:00,
2013-05-11 22:51:00,55.9,43.1,30.01,NW,312,10.5,10.5,62,0.00,BKN,,0.00,WeatherDisplay:10.37,2013-05-12 02:51:00,
2013-05-11 22:56:00,55.9,43.1,30.01,WNW,289,6.3,6.3,62,0.00,BKN,,0.00,WeatherDisplay:10.37,2013-05-12 02:56:00,
2013-05-11 23:01:00,55.4,41.7,30.01,NW,312,6.0,11.5,60,0.00,BKN,,0.00,WeatherDisplay:10.37,2013-05-12 03:01:00,
2013-05-11 23:06:00,55.2,40.7,30.01,NW,312,6.0,12.7,58,0.00,BKN,,0.00,WeatherDisplay:10.37,2013-05-12 03:06:00,
2013-05-11 23:11:00,55.0,40.5,30.01,ENE,65,4.5,4.6,58,0.00,CLR,,0.00,WeatherDisplay:10.37,2013-05-12 03:11:00,
2013-05-11 23:16:00,54.7,39.7,30.01,WNW,289,6.4,6.9,57,0.00,CLR,,0.00,WeatherDisplay:10.37,2013-05-12 03:16:00,
2013-05-11 23:21:00,54.5,40.0,30.02,NW,312,2.5,2.5,58,0.00,CLR,,0.00,WeatherDisplay:10.37,2013-05-12 03:21:00,
2013-05-11 23:26:00,54.1,39.2,30.02,NW,312,4.9,5.4,57,0.00,CLR,,0.00,WeatherDisplay:10.37,2013-05-12 03:26:00,
2013-05-11 23:31:00,54.0,39.5,30.02,NNW,335,4.4,4.7,58,0.00,CLR,,0.00,WeatherDisplay:10.37,2013-05-12 03:31:00,
2013-05-11 23:36:00,53.6,39.2,30.02,NW,312,3.1,3.5,58,0.00,CLR,,0.00,WeatherDisplay:10.37,2013-05-12 03:36:00,
2013-05-11 23:41:00,53.2,38.8,30.02,NNW,335,5.8,5.8,58,0.00,CLR,,0.00,WeatherDisplay:10.37,2013-05-12 03:41:00,
2013-05-11 23:46:00,53.1,38.7,30.02,NW,312,3.8,3.8,58,0.00,CLR,,0.00,WeatherDisplay:10.37,2013-05-12 03:46:00,
2013-05-11 23:51:00,52.9,38.1,30.02,WNW,289,2.5,2.5,57,0.00,CLR,,0.00,WeatherDisplay:10.37,2013-05-12 03:51:00,
2013-05-11 23:56:00,52.5,38.2,30.02,NW,312,4.4,4.6,58,0.00,CLR,,0.00,WeatherDisplay:10.37,2013-05-12 03:56:00,